Kilmarnock, Virginia, United States (22482)
Lat: 37.71N, Lon: 76.38W
Wx Zone: VAZ078
Local Info
Past Weather Observations for Sunday, March 1, 2015

NOTE: This archive is for the closest National Weather Service station to Kilmarnock. Information may differ from the station used for current weather conditions.

Click here for Long-term Archive

Time Weather Temperature Dewpoint Humidity Pressure Winds Precip Visibility
23:55
Overcast
36°F / 2°C 32°F / 0°C 87% 30.27 in
(1025 mb)
SW 4.6 mph
(SW 7 kph)
- 4SM
23:35
Overcast
36°F / 2°C 32°F / 0°C 87% 30.27 in
(1025 mb)
SW 3.5 mph
(SW 6 kph)
- 7SM
23:15
Overcast
36°F / 2°C 32°F / 0°C 87% 30.27 in
(1025 mb)
SW 4.6 mph
(SW 7 kph)
- 10SM
22:55
Overcast
36°F / 2°C 32°F / 0°C 87% 30.27 in
(1025 mb)
SSW 4.6 mph
(SSW 7 kph)
- 10SM
22:35
Overcast
36°F / 2°C 32°F / 0°C 87% 30.3 in
(1026 mb)
SSW 4.6 mph
(SSW 7 kph)
- 10SM
22:15
Overcast
36°F / 2°C 32°F / 0°C 87% 30.3 in
(1026 mb)
SSW 4.6 mph
(SSW 7 kph)
- 10SM
21:55
Overcast
36°F / 2°C 32°F / 0°C 87% 30.3 in
(1026 mb)
SSW 3.5 mph
(SSW 6 kph)
- 10SM
21:35
Overcast
36°F / 2°C 32°F / 0°C 87% 30.3 in
(1026 mb)
Calm - 7SM
21:15
Overcast
36°F / 2°C 32°F / 0°C 87% 30.3 in
(1026 mb)
Calm - 10SM
20:55
Overcast
36°F / 2°C 32°F / 0°C 87% 30.3 in
(1026 mb)
SSE 3.5 mph
(SSE 6 kph)
- 10SM
20:35
Overcast
34°F / 1°C 32°F / 0°C 93% 30.3 in
(1026 mb)
S 4.6 mph
(S 7 kph)
- 10SM
20:15
Overcast
34°F / 1°C 32°F / 0°C 93% 30.33 in
(1027 mb)
SSE 3.5 mph
(SSE 6 kph)
- 10SM
19:55
Overcast
34°F / 1°C 32°F / 0°C 93% 30.36 in
(1028 mb)
Calm - 10SM
19:35
Overcast
34°F / 1°C 32°F / 0°C 93% 30.36 in
(1028 mb)
SSE 3.5 mph
(SSE 6 kph)
- 10SM
19:15
Overcast
34°F / 1°C 32°F / 0°C 93% 30.36 in
(1028 mb)
S 3.5 mph
(S 6 kph)
- 10SM
18:55
Overcast
34°F / 1°C 32°F / 0°C 93% 30.36 in
(1028 mb)
SE 4.6 mph
(SE 7 kph)
- 10SM
18:35
Overcast
34°F / 1°C 32°F / 0°C 93% 30.39 in
(1029 mb)
Calm - 5SM
18:15
Overcast
34°F / 1°C 32°F / 0°C 93% 30.39 in
(1029 mb)
Calm - 10SM
17:55
Overcast
34°F / 1°C 32°F / 0°C 93% 30.39 in
(1029 mb)
SSW 4.6 mph
(SSW 7 kph)
0.04 in
(1.02 mm)
5SM
17:35
Overcast
34°F / 1°C 32°F / 0°C 93% 30.39 in
(1029 mb)
Calm 0.04 in
(1.02 mm)
2SM
17:15
Overcast
34°F / 1°C 30°F / -1°C 87% 30.39 in
(1029 mb)
Calm 0.02 in
(0.51 mm)
1 3/4SM
16:55
Overcast
34°F / 1°C 30°F / -1°C 87% 30.42 in
(1030 mb)
Calm 0.03 in
(0.76 mm)
1 3/4SM
16:35
Overcast
34°F / 1°C 30°F / -1°C 87% 30.42 in
(1030 mb)
NNW 3.5 mph
(NNW 6 kph)
0.01 in
(0.25 mm)
2SM
16:15
Overcast
34°F / 1°C 30°F / -1°C 87% 30.42 in
(1030 mb)
Calm - 3SM
15:55
Overcast
34°F / 1°C 30°F / -1°C 87% 30.45 in
(1031 mb)
Calm 0.02 in
(0.51 mm)
2 1/2SM
15:35
Overcast
32°F / 0°C 30°F / -1°C 93% 30.45 in
(1031 mb)
Calm 0.02 in
(0.51 mm)
2 1/2SM
15:15
Overcast
32°F / 0°C 30°F / -1°C 93% 30.45 in
(1031 mb)
Calm 0.01 in
(0.25 mm)
3SM
14:55
Overcast
32°F / 0°C 28°F / -2°C 87% 30.51 in
(1033 mb)
NW 3.5 mph
(NW 6 kph)
- 5SM
14:35
Overcast
32°F / 0°C 28°F / -2°C 87% 30.51 in
(1033 mb)
Calm - 2 1/2SM
14:15
Overcast
32°F / 0°C 28°F / -2°C 87% 30.51 in
(1033 mb)
Calm - 3SM
13:55
Overcast
32°F / 0°C 28°F / -2°C 87% 30.51 in
(1033 mb)
Calm - 10SM
13:35
Overcast
32°F / 0°C 28°F / -2°C 87% 30.51 in
(1033 mb)
Calm - 10SM
13:15
Overcast
32°F / 0°C 28°F / -2°C 87% 30.54 in
(1034 mb)
Calm - 10SM
12:55
Overcast
32°F / 0°C 28°F / -2°C 87% 30.54 in
(1034 mb)
Calm - 10SM
12:35
Overcast
32°F / 0°C 28°F / -2°C 87% 30.57 in
(1035 mb)
ENE 3.5 mph
(ENE 6 kph)
- 10SM
12:15
Overcast
32°F / 0°C 27°F / -3°C 80% 30.57 in
(1035 mb)
Calm - 3SM
11:55
Overcast
32°F / 0°C 27°F / -3°C 80% 30.6 in
(1036 mb)
Calm - 4SM
11:35
Overcast
32°F / 0°C 27°F / -3°C 80% 30.6 in
(1036 mb)
Calm - 4SM
11:15
Overcast
32°F / 0°C 27°F / -3°C 80% 30.6 in
(1036 mb)
NE 3.5 mph
(NE 6 kph)
- 10SM
10:55
Overcast
32°F / 0°C 27°F / -3°C 80% 30.63 in
(1037 mb)
NE 3.5 mph
(NE 6 kph)
0.01 in
(0.25 mm)
5SM
10:35
Overcast
32°F / 0°C 25°F / -4°C 75% 30.63 in
(1037 mb)
Calm - 7SM
10:15
Overcast
32°F / 0°C 25°F / -4°C 75% 30.66 in
(1038 mb)
Calm - 10SM
09:55
Overcast
32°F / 0°C 25°F / -4°C 75% 30.66 in
(1038 mb)
Calm - 10SM
09:35
Overcast
32°F / 0°C 23°F / -5°C 69% 30.66 in
(1038 mb)
ENE 4.6 mph
(ENE 7 kph)
- 10SM
09:15
Overcast
30°F / -1°C 23°F / -5°C 75% 30.66 in
(1038 mb)
Calm - 10SM
08:55
Overcast
30°F / -1°C 23°F / -5°C 75% 30.66 in
(1038 mb)
NE 3.5 mph
(NE 6 kph)
- 10SM
08:35
Overcast
30°F / -1°C 21°F / -6°C 69% 30.69 in
(1039 mb)
Calm - 10SM
08:15
Overcast
30°F / -1°C 21°F / -6°C 69% 30.69 in
(1039 mb)
Calm - 10SM
07:55
Overcast
30°F / -1°C 19°F / -7°C 64% 30.69 in
(1039 mb)
NNW 3.5 mph
(NNW 6 kph)
- 10SM
07:35
Overcast
30°F / -1°C 19°F / -7°C 64% 30.69 in
(1039 mb)
Calm - 10SM
07:15
Overcast
30°F / -1°C 19°F / -7°C 64% 30.66 in
(1038 mb)
Calm - 10SM
06:55
Overcast
28°F / -2°C 21°F / -6°C 74% 30.66 in
(1038 mb)
E 3.5 mph
(E 6 kph)
- 10SM
06:35
Overcast
28°F / -2°C 19°F / -7°C 69% 30.69 in
(1039 mb)
Calm - 10SM
06:15
Overcast
28°F / -2°C 19°F / -7°C 69% 30.69 in
(1039 mb)
Calm - 10SM
05:55
Overcast
27°F / -3°C 19°F / -7°C 74% 30.69 in
(1039 mb)
Calm - 10SM
05:35
Overcast
27°F / -3°C 18°F / -8°C 69% 30.69 in
(1039 mb)
Calm - 10SM
05:15
Overcast
25°F / -4°C 18°F / -8°C 74% 30.69 in
(1039 mb)
Calm - 10SM
04:55
Overcast
23°F / -5°C 18°F / -8°C 80% 30.69 in
(1039 mb)
Calm - 10SM
04:35
Overcast
23°F / -5°C 18°F / -8°C 80% 30.69 in
(1039 mb)
Calm - 10SM
04:15
Mostly Cloudy
21°F / -6°C 16°F / -9°C 80% 30.69 in
(1039 mb)
Calm - 10SM
03:55
Clear
19°F / -7°C 14°F / -10°C 79% 30.71 in
(1040 mb)
Calm - 10SM
03:35
Clear
19°F / -7°C 16°F / -9°C 86% 30.69 in
(1039 mb)
Calm - 10SM
03:15
Clear
19°F / -7°C 14°F / -10°C 79% 30.71 in
(1040 mb)
Calm - 10SM
02:55
Clear
21°F / -6°C 16°F / -9°C 80% 30.71 in
(1040 mb)
Calm - 10SM
02:35
Clear
19°F / -7°C 14°F / -10°C 79% 30.71 in
(1040 mb)
Calm - 10SM
02:15
Clear
19°F / -7°C 16°F / -9°C 86% 30.71 in
(1040 mb)
Calm - 10SM
01:55
Clear
19°F / -7°C 16°F / -9°C 86% 30.74 in
(1041 mb)
Calm - 10SM
01:35
Clear
19°F / -7°C 14°F / -10°C 79% 30.74 in
(1041 mb)
Calm - 10SM
01:15
Clear
19°F / -7°C 14°F / -10°C 79% 30.74 in
(1041 mb)
Calm - 10SM
00:55
Clear
21°F / -6°C 16°F / -9°C 80% 30.74 in
(1041 mb)
Calm - 10SM
00:35
Clear
21°F / -6°C 14°F / -10°C 74% 30.74 in
(1041 mb)
Calm - 10SM
00:15
Clear
19°F / -7°C 16°F / -9°C 86% 30.77 in
(1042 mb)
Calm - 10SM
Time Weather Temperature Dewpoint Humidity Pressure Winds Precip Visibility


Weather for websites

WeatherForYou.com, LLC is not responsible for any damages or problems caused by this service. Current weather conditions are obtained from the closest station including government and personal stations which may have varying degrees of accuracy. Weather forecasts are derived from the NOAA NDFD. Like all things, this site belongs to Jesus Christ... He just trusts me to maintain it. If you have any questions or comments email webmaster@weatherforyou.com

Copyright © 2015, WeatherForYou.com LLC. All rights reserved.